Location: Hartford
(41.7640°N, 72.6860°W)
Time: 10:28:11
(UTC-04:00)

Amateur Radio Satellites - All Passes

Search period start: 02 October 2014 09:58
Search period end: 03 October 2014 09:58
Location: Hartford, 41.7640°N, 72.6860°W

Satellite Date Start Highest point End Downlink Frequencies (MHz)
Time Altitude Azimuth
FUNcube-1 02 Oct 10:05:04 10:07:31 14° 90° (E) 10:09:56 145.950 - 145.970 MHz USB
UKube-1 02 Oct 10:06:47 10:10:57 42° 99° (E) 10:15:05 145.840 MHz, 145.915 MHz
Sapphire 02 Oct 10:13:25 10:18:38 49° 305° (NW) 10:23:55 437.095 MHz 1200 baud AX-25 AFSK
HO-68 02 Oct 10:33:48 10:40:55 67° 290° (WNW) 10:48:01 435.675 MHz FM
PCSat 02 Oct 10:39:36 10:44:21 30° 311° (NW) 10:49:08 145.825 MHz
ZACube-1 02 Oct 10:49:05 10:53:26 42° 98° (E) 10:57:39 437.345 MHz
Oscar 11 02 Oct 11:12:12 11:16:19 44° 288° (WNW) 11:20:24 145.825 FM, Beacon 2401.500 USB
RS-15 02 Oct 11:38:40 11:49:50 83° 240° (WSW) 12:01:28 29.354 - 29.394 USB, Beacon 29.352 USB
FUNcube-1 02 Oct 11:39:49 11:44:16 55° 287° (WNW) 11:48:35 145.950 - 145.970 MHz USB
UKube-1 02 Oct 11:43:47 11:46:50 19° 295° (WNW) 11:49:52 145.840 MHz, 145.915 MHz
Sapphire 02 Oct 12:02:19 12:03:26 11° 327° (NNW) 12:04:33 437.095 MHz 1200 baud AX-25 AFSK
Oscar 16 02 Oct 12:07:48 12:10:46 16° 60° (ENE) 12:13:43 437.025 USB, Beacon 2401.1428
HO-68 02 Oct 12:24:02 12:27:18 14° 310° (NW) 12:30:34 435.675 MHz FM
ZACube-1 02 Oct 12:26:15 12:29:30 20° 295° (WNW) 12:32:41 437.345 MHz
Saudisat 1A 02 Oct 12:34:25 12:35:26 11° 107° (ESE) 12:36:27 436.775 MHz
JAS-1B 02 Oct 12:44:39 12:50:32 28° 65° (ENE) 12:55:43 435.800 - 435.900 CW/SSB
Oscar 19 02 Oct 13:03:15 13:08:12 46° 70° (ENE) 13:13:08 437.125 CW, 437.150 USB
ITAMSAT 1 02 Oct 13:18:53 13:23:15 28° 66° (ENE) 13:27:38 435.822 SSB
Uribyol 2 02 Oct 13:19:16 13:23:44 30° 66° (ENE) 13:28:14 436.500 FM
TMSAT-1 02 Oct 13:21:52 13:23:27 11° 57° (ENE) 13:25:03 436.925 FM
AO-Echo 02 Oct 13:43:01 13:47:33 51° 72° (ENE) 13:52:09 ?
Oscar 16 02 Oct 13:44:19 13:49:30 73° 257° (WSW) 13:54:42 437.025 USB, Beacon 2401.1428
RS-15 02 Oct 13:53:17 14:00:31 20° 260° (W) 14:07:57 29.354 - 29.394 USB, Beacon 29.352 USB
AO-27 02 Oct 13:56:49 14:01:55 63° 72° (ENE) 14:07:04 436.795 MHz FM
Saudisat 1A 02 Oct 14:09:57 14:14:20 79° 304° (WNW) 14:18:46 436.775 MHz
Gurwin Techsat 1B 02 Oct 14:29:36 14:34:49 61° 72° (ENE) 14:40:04 435.225 FM
JAS-1B 02 Oct 14:33:32 14:40:57 54° 259° (WSW) 14:47:14 435.800 - 435.900 CW/SSB
Oscar 19 02 Oct 14:43:46 14:47:44 22° 267° (W) 14:51:43 437.125 CW, 437.150 USB
AO-7 02 Oct 14:49:06 14:56:04 32° 57° (ENE) 15:03:02 29.400 - 29.500 MHz
TMSAT-1 02 Oct 14:57:13 15:02:30 81° 75° (ENE) 15:07:49 436.925 FM
ITAMSAT 1 02 Oct 14:57:50 15:02:35 37° 263° (W) 15:07:23 435.822 SSB
Uribyol 2 02 Oct 14:58:25 15:03:06 34° 263° (W) 15:07:50 436.500 FM
MaSat-1 02 Oct 15:05:03 15:08:22 71° 246° (WSW) 15:11:13 437.345 MHz
Uosat F 02 Oct 15:07:15 15:10:31 18° 62° (ENE) 15:13:48 435.120 FM
AO-Echo 02 Oct 15:23:46 15:26:40 16° 269° (W) 15:29:35 ?
AO-27 02 Oct 15:38:47 15:41:52 16° 269° (W) 15:44:58 436.795 MHz FM
Saudisat 1A 02 Oct 15:52:34 15:54:39 13° 323° (NW) 15:56:44 436.775 MHz
Gurwin Techsat 1B 02 Oct 16:11:51 16:15:12 17° 269° (W) 16:18:34 435.225 FM
KITSAT 1 02 Oct 16:23:59 16:31:34 47° 111° (ESE) 16:39:10 435.175 FM
Hamsat 02 Oct 16:34:46 16:36:32 12° 63° (ENE) 16:38:18 145.90 MHz
AO-7 02 Oct 16:40:08 16:48:20 64° 256° (WSW) 16:56:34 29.400 - 29.500 MHz
TMSAT-1 02 Oct 16:40:53 16:43:02 12° 271° (W) 16:45:11 436.925 FM
Uosat F 02 Oct 16:43:55 16:48:50 59° 259° (WSW) 16:53:47 435.120 FM
OPAL 02 Oct 16:57:55 17:01:46 21° 95° (E) 17:05:33 ?
Oscar 10/S400 02 Oct 17:05:25 17:23:24 51° 160° (SSE) 18:12:35 145.825 - 145.975 CW/USB, Beacon 145.810 USB
JAS-2 02 Oct 17:11:54 17:16:46 43° 69° (ENE) 17:21:56 435.800 - 435.900 CW/SSB, 435.910 FM
Sapphire 02 Oct 17:18:11 17:22:33 24° 46° (NE) 17:26:54 437.095 MHz 1200 baud AX-25 AFSK
PCSat 02 Oct 17:43:15 17:48:18 38° 52° (NE) 17:53:19 145.825 MHz
SO-50 02 Oct 17:49:19 17:51:17 13° 108° (ESE) 17:53:16 436.795 FM
Hamsat 02 Oct 18:07:39 18:11:57 66° 259° (W) 18:16:15 145.90 MHz
KITSAT 1 02 Oct 18:19:21 18:27:00 45° 312° (NW) 18:34:41 435.175 FM
OPAL 02 Oct 18:36:00 18:40:52 46° 292° (WNW) 18:45:38 ?
AO-7 02 Oct 18:41:45 18:42:40 10° 275° (W) 18:43:35 29.400 - 29.500 MHz
JAS-2 02 Oct 18:58:11 19:02:11 22° 268° (W) 19:06:21 435.800 - 435.900 CW/SSB, 435.910 FM
Sapphire 02 Oct 19:01:01 19:06:21 58° 245° (WSW) 19:11:39 437.095 MHz 1200 baud AX-25 AFSK
SO-67 02 Oct 19:11:25 19:14:51 89° 257° (WSW) 19:18:19 435.3500 MHz FM
HO-68 02 Oct 19:17:24 19:22:14 20° 55° (NE) 19:27:06 435.675 MHz FM
AO-40 02 Oct 19:23:49 01:07:09 42° 183° (S) 08:18:49 Beacon 2401.320
SO-50 02 Oct 19:26:43 19:31:11 71° 305° (NW) 19:35:49 436.795 FM
PCSat 02 Oct 19:26:50 19:31:37 33° 250° (WSW) 19:36:23 145.825 MHz
STRAND 1 02 Oct 19:39:56 19:45:05 70° 102° (ESE) 19:50:13 ?
UOSAT-12 02 Oct 19:46:44 19:49:50 18° 110° (ESE) 19:52:59 437.025 FM, 437.400 FM
KITSAT 1 02 Oct 20:20:20 20:24:51 16° 338° (NNW) 20:29:22 435.175 FM
Oscar 11 02 Oct 20:33:11 20:35:37 15° 63° (ENE) 20:38:03 145.825 FM, Beacon 2401.500 USB
PANSAT 02 Oct 20:52:28 20:53:43 11° 181° (S) 20:54:57 not established
Saudisat 1A 02 Oct 20:58:16 21:00:37 14° 38° (NE) 21:02:58 436.775 MHz
HO-68 02 Oct 21:01:55 21:09:04 86° 254° (WSW) 21:16:16 435.675 MHz FM
FUNcube-1 02 Oct 21:02:17 21:04:33 14° 62° (ENE) 21:06:50 145.950 - 145.970 MHz USB
UKube-1 02 Oct 21:02:32 21:06:32 38° 70° (ENE) 21:10:34 145.840 MHz, 145.915 MHz
SO-50 02 Oct 21:10:35 21:12:38 13° 325° (NW) 21:14:43 436.795 FM
STRAND 1 02 Oct 21:20:39 21:23:41 16° 299° (WNW) 21:26:44 ?
UOSAT-12 02 Oct 21:25:00 21:29:33 55° 307° (NW) 21:34:11 437.025 FM, 437.400 FM
ISS 02 Oct 21:28:39 21:31:51 46° 139° (SE) 21:35:03 145.800 FM
ZACube-1 02 Oct 21:45:36 21:49:46 36° 70° (ENE) 21:54:00 437.345 MHz
Oscar 11 02 Oct 22:07:04 22:11:21 55° 260° (W) 22:15:39 145.825 FM, Beacon 2401.500 USB
KITSAT 1 02 Oct 22:21:39 22:24:32 12° 9° (N) 22:27:25 435.175 FM
FUNcube-1 02 Oct 22:35:50 22:40:21 68° 259° (W) 22:44:58 145.950 - 145.970 MHz USB
Saudisat 1A 02 Oct 22:36:25 22:40:52 87° 57° (ENE) 22:45:16 436.775 MHz
UKube-1 02 Oct 22:39:45 22:42:52 19° 266° (W) 22:45:59 145.840 MHz, 145.915 MHz
HO-68 02 Oct 22:54:02 22:57:43 15° 272° (W) 23:01:26 435.675 MHz FM
ISS 02 Oct 23:05:43 23:08:39 28° 337° (NNW) 23:11:36 145.800 FM
UOSAT-12 02 Oct 23:09:24 23:10:46 11° 328° (NNW) 23:12:08 437.025 FM, 437.400 FM
ZACube-1 02 Oct 23:22:41 23:26:15 23° 267° (W) 23:29:53 437.345 MHz
RS-15 02 Oct 23:58:58 00:02:43 12° 95° (E) 00:06:25 29.354 - 29.394 USB, Beacon 29.352 USB
KITSAT 1 03 Oct 00:16:38 00:23:21 28° 39° (NE) 00:30:01 435.175 FM
ISS 03 Oct 00:44:07 00:46:09 15° 357° (N) 00:48:11 145.800 FM
Oscar 19 03 Oct 01:15:56 01:18:58 16° 91° (E) 01:21:58 437.125 CW, 437.150 USB
AO-Echo 03 Oct 01:50:30 01:53:51 17° 92° (E) 01:57:14 ?
Oscar 16 03 Oct 01:56:01 02:00:50 39° 98° (E) 02:05:36 437.025 USB, Beacon 2401.1428
RS-15 03 Oct 02:01:52 02:12:43 65° 115° (ESE) 02:23:26 29.354 - 29.394 USB, Beacon 29.352 USB
AO-27 03 Oct 02:10:20 02:14:22 22° 93° (E) 02:18:23 436.795 MHz FM
KITSAT 1 03 Oct 02:11:37 02:19:44 85° 241° (WSW) 02:27:47 435.175 FM
JAS-1B 03 Oct 02:17:19 02:22:36 37° 98° (E) 02:28:19 435.800 - 435.900 CW/SSB
SO-50 03 Oct 02:18:21 02:21:43 19° 40° (NE) 02:25:07 436.795 FM
ISS 03 Oct 02:21:07 02:23:46 21° 17° (NNE) 02:26:24 145.800 FM
Gurwin Techsat 1B 03 Oct 02:46:12 02:50:27 24° 94° (E) 02:54:41 435.225 FM
Oscar 19 03 Oct 02:53:39 02:58:44 63° 287° (WNW) 03:03:47 437.125 CW, 437.150 USB
ITAMSAT 1 03 Oct 03:09:50 03:15:06 78° 103° (ESE) 03:20:19 435.822 SSB
Uribyol 2 03 Oct 03:10:12 03:15:28 83° 104° (ESE) 03:20:41 436.500 FM
TMSAT-1 03 Oct 03:13:12 03:17:54 31° 96° (E) 03:22:34 436.925 FM
AO-Echo 03 Oct 03:27:59 03:32:55 57° 287° (WNW) 03:37:59 ?
Oscar 16 03 Oct 03:35:45 03:39:59 26° 295° (WNW) 03:44:12 437.025 USB, Beacon 2401.1428
AO-27 03 Oct 03:49:06 03:54:05 46° 290° (WNW) 03:59:03 436.795 MHz FM
ISS 03 Oct 03:57:28 04:00:48 86° 216° (SW) 04:04:07 145.800 FM
SO-50 03 Oct 03:57:59 04:02:49 75° 239° (WSW) 04:07:41 436.795 FM
JAS-1B 03 Oct 04:08:19 04:13:14 31° 294° (WNW) 04:18:29 435.800 - 435.900 CW/SSB
KITSAT 1 03 Oct 04:09:15 04:13:55 17° 260° (W) 04:18:35 435.175 FM
OPAL 03 Oct 04:12:30 04:17:22 41° 67° (ENE) 04:22:14 ?
UOSAT-12 03 Oct 04:14:55 04:18:32 21° 42° (NE) 04:22:07 437.025 FM, 437.400 FM
RS-15 03 Oct 04:15:28 04:25:40 42° 320° (NW) 04:35:56 29.354 - 29.394 USB, Beacon 29.352 USB
Gurwin Techsat 1B 03 Oct 04:25:34 04:30:35 44° 290° (WNW) 04:35:35 435.225 FM
AO-7 03 Oct 04:41:22 04:49:14 45° 100° (E) 04:57:03 29.400 - 29.500 MHz
MaSat-1 03 Oct 04:47:13 04:51:42 39° 110° (ESE) 04:56:00 437.345 MHz
ITAMSAT 1 03 Oct 04:51:08 04:53:55 15° 301° (WNW) 04:56:43 435.822 SSB
Uosat F 03 Oct 04:51:22 04:56:08 41° 99° (E) 05:00:53 435.120 FM
Uribyol 2 03 Oct 04:51:40 04:54:13 14° 301° (WNW) 04:56:46 436.500 FM
TMSAT-1 03 Oct 04:53:03 04:57:47 34° 293° (WNW) 05:02:30 436.925 FM
STRAND 1 03 Oct 05:20:17 05:22:46 14° 59° (ENE) 05:25:15 ?
OPAL 03 Oct 05:52:04 05:56:21 25° 263° (W) 06:00:38 ?
Hamsat 03 Oct 05:53:52 05:57:03 21° 93° (E) 06:00:12 145.90 MHz
UOSAT-12 03 Oct 05:54:25 05:59:04 59° 241° (WSW) 06:03:38 437.025 FM, 437.400 FM
JAS-2 03 Oct 06:03:15 06:09:47 46° 99° (E) 06:16:57 435.800 - 435.900 CW/SSB, 435.910 FM
MaSat-1 03 Oct 06:24:13 06:28:12 26° 305° (NW) 06:32:00 437.345 MHz
Uosat F 03 Oct 06:30:40 06:34:40 24° 295° (WNW) 06:38:41 435.120 FM
RS-15 03 Oct 06:34:15 06:42:07 21° 353° (N) 06:50:04 29.354 - 29.394 USB, Beacon 29.352 USB
AO-7 03 Oct 06:34:17 06:41:57 43° 299° (WNW) 06:49:36 29.400 - 29.500 MHz
STRAND 1 03 Oct 06:56:10 07:01:16 81° 257° (WSW) 07:06:25 ?
Hamsat 03 Oct 07:29:19 07:33:04 32° 290° (WNW) 07:36:47 145.90 MHz
JAS-2 03 Oct 07:48:37 07:54:40 37° 293° (WNW) 08:01:17 435.800 - 435.900 CW/SSB, 435.910 FM
Sapphire 03 Oct 08:01:52 08:05:18 17° 105° (ESE) 08:08:44 437.095 MHz 1200 baud AX-25 AFSK
SO-67 03 Oct 08:07:29 08:10:56 76° 284° (WNW) 08:14:22 435.3500 MHz FM
PCSat 03 Oct 08:25:41 08:30:22 31° 109° (ESE) 08:35:04 145.825 MHz
HO-68 03 Oct 08:31:03 08:35:34 17° 90° (E) 08:40:03 435.675 MHz FM
RS-15 03 Oct 08:50:06 08:59:28 30° 29° (NNE) 09:09:03 29.354 - 29.394 USB, Beacon 29.352 USB
Sapphire 03 Oct 09:42:46 09:48:08 66° 302° (WNW) 09:53:33 437.095 MHz 1200 baud AX-25 AFSK
